TimeEDT,TemperatureF,Dew PointF,Humidity,Sea Level PressureIn,VisibilityMPH,Wind Direction,Wind SpeedMPH,Gust SpeedMPH,PrecipitationIn,Events,Conditions,WindDirDegrees,DateUTC
12:56 AM,57.2,53.6,88,29.82,6.0,North,18.4,28.8,N/A,Rain,Light Rain,350,2011-10-05 04:56:00
1:56 AM,57.0,54.0,89,29.84,10.0,North,19.6,25.3,0.00,,Overcast,350,2011-10-05 05:56:00
2:15 AM,57.2,53.6,88,29.84,6.0,North,17.3,27.6,0.00,Rain,Light Rain,360,2011-10-05 06:15:00
2:56 AM,57.9,53.1,84,29.84,10.0,North,18.4,29.9,0.00,,Overcast,350,2011-10-05 06:56:00
3:56 AM,57.0,52.0,83,29.85,10.0,North,17.3,23.0,N/A,,Overcast,350,2011-10-05 07:56:00
4:45 AM,57.2,50.0,77,29.86,10.0,North,18.4,27.6,N/A,,Overcast,360,2011-10-05 08:45:00
4:56 AM,57.0,50.0,77,29.87,10.0,North,17.3,28.8,N/A,,Overcast,360,2011-10-05 08:56:00
5:28 AM,57.2,50.0,77,29.88,10.0,North,15.0,26.5,N/A,,Overcast,360,2011-10-05 09:28:00
5:56 AM,57.0,51.1,81,29.88,10.0,North,10.4,20.7,N/A,,Overcast,10,2011-10-05 09:56:00
6:45 AM,57.2,53.6,88,29.89,10.0,NW,6.9,-,0.00,,Overcast,310,2011-10-05 10:45:00
6:56 AM,57.0,53.1,87,29.89,10.0,NW,10.4,-,0.00,,Overcast,310,2011-10-05 10:56:00
7:13 AM,57.2,53.6,88,29.89,10.0,NW,8.1,16.1,N/A,,Overcast,320,2011-10-05 11:13:00
7:26 AM,57.2,53.6,88,29.90,10.0,NW,9.2,18.4,N/A,,Overcast,310,2011-10-05 11:26:00
7:41 AM,57.2,53.6,88,29.90,10.0,NW,8.1,-,N/A,,Overcast,320,2011-10-05 11:41:00
7:56 AM,57.0,53.1,87,29.91,10.0,NW,9.2,-,N/A,,Overcast,310,2011-10-05 11:56:00
8:56 AM,57.0,52.0,83,29.94,10.0,NW,8.1,18.4,N/A,,Overcast,310,2011-10-05 12:56:00
9:07 AM,57.2,51.8,82,29.93,10.0,NW,9.2,18.4,N/A,,Overcast,310,2011-10-05 13:07:00
9:56 AM,59.0,51.1,75,29.94,10.0,NW,9.2,20.7,N/A,,Overcast,320,2011-10-05 13:56:00
10:56 AM,-9999,-9999,N/A,29.93,-9999.0,North,-9999.0,-,N/A,,Unknown,0,2011-10-05 14:56:00
11:56 AM,62.1,48.0,60,29.94,-9999.0,North,16.1,20.7,N/A,,Unknown,350,2011-10-05 15:56:00
12:56 PM,62.6,48.2,59,29.93,10.0,North,15.0,20.7,N/A,,Unknown,360,2011-10-05 16:56:00
1:56 PM,62.6,48.2,59,29.93,10.0,North,15.0,25.3,N/A,,Unknown,350,2011-10-05 17:56:00
2:56 PM,60.8,48.2,63,29.94,10.0,North,9.2,20.7,N/A,,Unknown,360,2011-10-05 18:56:00
3:56 PM,64.0,45.0,50,29.95,10.0,NW,13.8,20.7,N/A,,Scattered Clouds,310,2011-10-05 19:56:00
4:56 PM,61.0,45.0,56,29.97,10.0,NNW,9.2,18.4,0.00,,Mostly Cloudy,340,2011-10-05 20:56:00
5:56 PM,57.0,46.0,67,30.02,10.0,NNE,17.3,21.9,N/A,,Clear,20,2011-10-05 21:56:00
6:56 PM,57.9,43.0,58,30.06,10.0,North,24.2,33.4,N/A,,Overcast,10,2011-10-05 22:56:00
7:56 PM,55.9,41.0,57,30.09,10.0,North,21.9,32.2,N/A,,Mostly Cloudy,10,2011-10-05 23:56:00
8:56 PM,55.9,39.9,55,30.13,10.0,North,18.4,29.9,N/A,,Mostly Cloudy,10,2011-10-06 00:56:00
9:56 PM,54.0,32.0,43,30.16,10.0,North,21.9,32.2,N/A,,Partly Cloudy,360,2011-10-06 01:56:00
10:56 PM,54.0,30.0,40,30.18,10.0,North,12.7,23.0,N/A,,Mostly Cloudy,350,2011-10-06 02:56:00
11:56 PM,53.1,28.9,40,30.20,10.0,North,15.0,23.0,N/A,,Scattered Clouds,360,2011-10-06 03:56:00